Wind_Gust
5 3 2 3 5 4 3 9 11 10 5 8 6 5 11 2 5 9 8 9 6 4 2 6 5 5 6 9 15 14 9 10 6 19 14 7 9 11 15 19 17 18 20 18 16 17 17 18 19 21 19 19 19 20 18 19 20 20 21 20 19 20 20 21 22 22 21 21 22 22 22 22 21 20 20 20 20 19 19 20 21 20 20 20 19 19 19 19 18 17 17 17 18 19 19 20 20
3 3 2 3 2 4 7 7 11 3 10 6 14 4 8 3 2 4 9 7 7 5 7 9 14 17 20 21 17 8 12 11 4 6 9 13 15 13 11 15 19 23 21 19 17 17 16 18 19 19 19 19 19 19 20 18 18 20 21 20 19 19 19 20 21 22 21 19 20 20 22 22 21 20 19 19 18 16 14 17 19 20 20 19 18 18 17 18 18 18 17 18 18 19 19 20 20
2 1 2 5 6 7 7 8 7 3 6 5 17 13 5 3 6 3 10 9 4 6 3 3 7 9 5 4 9 5 4 7 13 10 14 14 19 11 11 11 13 16 15 14 14 15 16 19 20 20 20 19 18 19 20 19 18 18 21 20 19 19 19 20 20 20 20 20 20 20 20 20 20 20 19 19 18 17 15 14 18 19 19 19 18 17 15 17 19 19 19 17 19 19 20 20 20
2 2 7 6 6 9 8 7 9 14 8 13 10 12 9 8 3 2 8 1 3 4 8 14 13 8 4 14 9 10 13 11 8 13 24 20 12 16 15 14 16 16 14 14 14 14 15 22 23 23 21 19 18 20 21 20 20 18 17 19 20 19 18 18 20 19 20 20 19 19 19 19 19 19 19 19 18 16 15 14 13 17 17 17 18 16 17 17 18 18 19 17 18 19 19 19 19
2 1 4 6 12 5 9 6 9 8 9 15 10 9 5 5 4 3 6 7 6 4 6 6 9 11 7 10 5 8 5 9 10 6 16 9 13 17 14 12 14 15 14 12 12 12 14 23 23 23 23 22 19 19 20 20 19 19 18 17 18 18 18 18 18 18 19 19 18 18 18 18 19 18 18 18 17 15 15 12 10 10 13 15 16 16 16 15 15 16 18 18 17 19 19 18 17
5 4 5 5 6 7 16 5 4 6 13 8 5 10 5 7 4 2 6 7 6 1 3 5 6 4 11 9 8 7 6 13 7 8 12 14 16 14 14 12 15 16 13 10 10 11 15 18 18 19 19 20 19 20 21 20 20 19 18 18 17 17 17 17 17 18 18 18 18 18 17 17 17 17 17 17 16 15 12 10 9 12 15 16 17 15 14 13 13 14 16 17 17 18 17 16 14
6 8 9 7 6 12 10 6 8 11 12 7 9 11 13 12 7 4 4 7 3 3 4 5 9 7 12 8 7 9 9 7 5 8 7 16 15 13 12 14 16 16 13 10 10 13 16 18 19 18 18 19 18 18 20 20 20 19 19 17 17 17 16 16 16 16 17 17 16 16 16 16 16 16 16 16 15 13 11 9 11 12 15 15 16 15 14 13 12 13 14 16 16 16 14 13 12
2 7 6 8 6 4 3 3 9 9 8 8 6 7 15 12 12 9 3 2 7 5 3 9 6 11 5 8 10 6 11 7 12 15 17 17 14 12 12 15 18 16 13 12 12 12 19 19 18 17 17 18 19 18 18 19 19 18 18 17 16 15 16 16 15 14 15 16 17 17 17 16 16 16 16 15 14 13 12 12 13 15 15 15 15 14 14 13 11 13 14 14 15 14 13 14 13
5 10 2 11 5 6 3 7 11 5 11 7 13 11 16 16 11 8 9 8 1 2 9 5 7 9 6 10 8 4 10 8 14 17 14 15 14 12 13 14 20 18 16 14 12 12 13 17 16 17 17 17 17 18 17 17 17 17 17 17 15 14 13 14 15 14 13 14 15 17 17 16 16 15 15 14 14 13 13 13 13 14 15 14 14 14 14 13 11 11 13 13 14 15 14 14 13
5 5 6 9 10 4 4 12 3 7 8 7 6 16 16 14 11 6 11 6 9 8 3 6 6 12 12 13 8 6 8 12 17 16 14 13 12 10 11 12 15 19 18 15 14 14 15 19 17 17 17 18 16 15 15 14 15 15 16 15 13 13 12 12 13 14 15 15 13 14 14 15 15 14 14 14 14 13 13 13 13 13 13 14 14 13 13 12 10 11 12 13 13 14 14 13 12
7 11 6 9 4 4 8 10 4 10 5 9 12 14 16 11 8 12 8 5 8 14 6 12 14 18 10 7 6 5 11 12 18 18 13 12 11 12 12 11 14 16 21 17 16 15 16 17 20 18 19 17 16 14 13 13 13 13 14 14 14 13 13 13 14 15 14 15 15 15 15 15 14 13 13 13 14 13 13 13 12 12 12 13 13 12 11 11 10 11 12 12 11 11 11 11 11
5 4 6 6 7 13 10 6 6 12 11 5 8 9 4 7 4 6 5 14 8 12 10 5 20 22 15 10 9 10 11 11 11 14 13 12 12 11 13 13 12 11 12 14 14 13 14 14 17 20 18 17 16 15 13 13 13 13 14 14 14 13 13 13 14 15 15 14 14 14 14 14 14 13 12 13 13 13 13 13 12 11 11 12 12 10 10 10 10 12 12 12 11 9 9 9 9
9 4 9 8 7 3 3 2 6 4 9 8 5 17 9 11 5 5 4 12 10 13 7 5 24 7 11 9 8 10 14 10 10 13 12 12 12 11 11 12 11 11 12 9 13 14 14 13 15 15 16 19 16 15 14 14 13 13 14 14 14 13 13 14 15 14 13 14 14 14 14 13 13 14 14 13 13 13 13 12 12 11 11 11 10 10 10 9 10 12 12 12 11 10 9 9 8
11 12 11 9 3 4 4 3 2 3 9 8 5 11 13 9 7 2 14 15 5 4 3 17 18 9 10 11 8 12 14 14 14 12 12 12 11 10 10 11 9 10 11 11 12 13 14 14 16 14 16 13 12 15 14 14 14 14 14 13 13 12 13 13 12 12 12 12 12 12 13 14 14 14 13 12 12 10 10 10 11 11 11 10 10 9 9 9 10 11 11 11 10 10 10 10 8
3 6 9 6 4 2 4 6 3 5 8 4 7 12 18 6 2 8 6 13 8 5 13 5 12 4 15 17 12 17 19 19 15 13 13 13 11 10 9 9 8 8 9 13 13 12 13 15 17 15 13 13 12 10 10 14 15 14 14 13 12 12 12 12 12 11 13 13 13 13 13 14 14 14 13 12 11 9 10 11 10 10 10 10 10 9 8 8 9 10 10 10 9 10 10 9 9
8 9 7 6 7 5 7 3 2 3 13 2 7 8 10 8 10 5 6 5 12 7 4 12 3 4 7 17 7 21 21 18 14 13 15 15 12 9 9 8 8 9 10 10 10 9 9 13 13 15 14 13 11 9 9 10 14 15 14 14 14 13 12 12 12 12 12 13 13 11 10 10 11 11 14 12 12 9 8 6 9 10 10 10 9 8 8 7 8 9 9 8 8 9 10 9 9
4 11 5 6 8 6 6 6 7 8 11 8 7 11 13 12 5 7 4 7 19 3 5 4 6 5 13 6 13 24 18 17 16 16 15 16 14 11 10 8 9 10 13 10 7 9 11 13 12 13 12 12 11 10 9 9 13 15 12 14 14 12 12 14 13 14 10 11 11 11 9 8 7 7 8 6 11 5 6 7 9 10 10 9 9 8 7 6 6 7 8 8 8 7 9 9 9
4 7 10 6 9 6 10 8 13 2 4 8 10 4 6 7 6 6 7 13 7 7 10 6 10 12 10 8 22 24 22 21 21 23 21 19 16 17 16 13 13 15 15 13 8 9 11 12 13 12 12 11 11 10 9 9 11 12 8 9 10 12 12 10 9 7 11 8 11 9 7 8 7 6 4 9 5 5 5 5 7 9 9 9 8 8 7 6 5 5 6 7 7 7 9 7 7
7 7 7 15 8 10 9 6 9 4 9 5 7 3 2 6 6 6 9 2 4 9 9 9 13 13 16 16 20 23 23 21 19 22 25 22 20 21 19 16 13 15 16 14 10 10 10 11 11 13 13 11 11 9 9 9 10 9 8 9 10 11 11 12 7 10 8 9 9 8 7 6 7 6 5 8 6 8 5 5 6 8 8 9 9 8 8 6 5 4 4 5 6 7 7 7 8
6 10 11 11 10 5 5 5 9 6 6 11 11 7 7 9 4 3 6 5 3 7 11 6 10 15 17 17 19 22 23 21 19 22 23 20 19 20 18 18 16 17 16 16 16 10 12 12 12 11 14 13 12 10 9 9 10 9 9 9 9 8 8 9 8 9 9 8 8 7 7 6 6 4 7 12 11 6 5 4 5 7 7 8 9 7 8 7 6 4 3 6 6 7 7 7 8
6 6 12 7 6 5 8 11 13 13 3 8 7 6 12 10 3 4 12 9 3 6 9 12 18 21 19 19 20 22 23 20 20 18 18 18 17 15 18 20 22 18 16 14 14 15 14 14 13 13 14 12 12 11 11 10 10 9 8 9 8 8 9 8 8 8 8 8 6 7 6 6 5 5 3 4 6 6 4 4 2 2 3 3 5 5 4 2 4 4 5 6 5 6 7 6 7
7 11 6 6 2 4 10 9 8 5 4 2 7 6 10 5 2 6 10 5 8 14 13 12 19 24 25 22 20 19 20 19 17 15 15 17 19 17 13 12 8 11 13 15 16 16 14 17 15 12 14 15 12 11 10 12 13 9 8 9 9 8 9 9 8 8 8 7 6 6 6 6 5 5 4 5 5 5 6 5 4 5 4 4 4 5 5 5 5 4 5 5 6 5 6 6 5
9 7 5 8 7 7 6 3 6 5 6 5 5 3 5 4 5 2 4 5 7 6 8 14 22 29 22 22 21 17 19 15 14 17 27 23 16 18 19 15 12 13 12 10 12 12 15 14 13 14 15 13 11 10 9 9 10 8 8 8 9 8 9 9 8 7 7 7 5 6 8 7 6 5 5 5 5 5 6 5 6 5 4 6 6 4 4 5 6 4 4 5 5 5 5 5 4
6 14 2 7 5 9 8 8 6 3 5 13 7 5 7 6 10 2 2 6 11 12 7 16 16 17 21 22 13 15 16 16 14 17 16 16 18 22 22 17 17 13 9 10 11 11 12 15 14 16 16 13 10 13 12 9 10 9 9 13 9 11 11 9 8 8 8 7 6 5 6 7 7 6 5 5 5 4 5 4 4 5 8 9 8 4 4 5 5 5 4 4 5 5 5 5 5
7 9 5 8 3 9 8 8 8 6 11 12 5 9 16 10 9 2 3 5 6 6 10 17 17 18 16 16 17 16 15 13 13 13 11 11 11 12 10 16 16 11 11 9 12 11 10 11 13 16 15 15 12 12 12 8 11 12 7 9 11 11 8 8 9 8 9 8 6 7 7 7 6 7 6 5 4 4 4 3 4 8 9 7 5 3 3 3 3 4 3 3 2 4 4 5 5
11 13 3 5 7 8 9 7 10 9 8 4 3 11 14 12 4 3 5 2 2 8 14 15 18 19 16 16 15 15 14 13 13 13 12 10 13 15 13 17 16 10 12 9 8 9 10 11 14 15 14 15 13 12 9 12 13 15 8 9 10 11 8 8 7 7 6 7 7 7 6 6 7 8 6 5 5 4 5 5 7 8 8 8 4 4 6 4 5 5 5 4 4 4 5 5 4
7 6 6 7 11 7 7 5 7 3 8 5 10 6 10 4 12 9 2 5 8 12 14 12 17 18 16 15 13 11 14 12 12 12 12 10 11 14 15 15 21 15 14 9 6 7 9 11 11 10 10 10 9 11 10 10 11 10 8 9 9 9 8 8 6 6 6 5 6 8 7 7 7 5 6 6 5 6 6 6 9 8 6 7 8 7 8 6 3 4 4 4 3 5 6 5 6
5 5 2 7 7 6 10 3 15 1 9 11 10 11 3 3 3 10 7 7 11 17 14 15 17 17 18 15 13 11 12 12 13 15 18 16 17 14 19 17 17 9 17 17 9 8 10 10 11 9 9 9 10 9 10 9 9 9 9 8 7 8 8 7 7 6 8 6 6 6 6 5 6 4 5 5 6 7 7 7 8 7 8 6 7 8 7 6 4 5 4 3 2 4 7 6 6
3 2 5 9 10 12 4 8 4 8 9 10 11 3 4 3 6 7 8 9 9 14 16 17 16 15 15 13 14 13 16 18 20 20 17 13 8 12 21 22 24 18 10 10 10 7 7 8 9 7 7 8 10 10 8 7 7 8 8 7 7 10 8 7 7 6 6 7 6 5 5 6 5 6 5 4 7 7 8 8 8 8 8 8 10 9 8 5 5 4 3 6 12 10 8 7 6
1 4 3 8 11 10 9 2 1 6 7 10 11 13 11 12 11 8 13 15 12 15 17 16 14 15 14 16 15 15 12 18 15 8 7 6 8 12 16 23 25 21 17 9 5 6 3 6 7 8 8 10 9 8 7 7 8 8 8 7 8 8 7 7 7 6 7 6 5 4 5 7 6 5 7 5 5 7 6 7 8 8 6 7 7 8 9 6 5 4 3 8 10 10 7 5 4
5 4 8 3 4 9 7 3 2 5 7 11 3 13 13 11 11 7 11 17 20 20 20 18 16 15 14 16 16 15 15 10 7 9 9 7 8 7 10 10 11 15 9 8 8 7 3 6 9 8 9 8 8 8 9 8 7 9 9 8 7 7 7 6 6 6 6 6 5 6 5 6 9 8 7 9 7 4 5 5 6 7 7 7 6 7 7 4 5 5 4 6 7 4 4 3 5
4 3 6 8 3 12 15 10 8 9 7 2 7 10 14 11 11 12 12 13 15 21 22 19 17 15 15 16 18 14 15 5 5 4 6 8 7 5 3 10 6 6 8 7 9 6 5 3 7 7 8 9 8 8 7 8 8 8 8 9 8 7 6 6 6 6 5 5 5 5 5 5 9 9 5 6 8 5 6 6 5 7 7 6 6 5 5 6 6 6 5 7 7 3 6 5 6
10 4 5 3 1 9 14 2 3 10 5 1 11 13 4 6 13 11 11 14 11 19 20 18 18 16 15 15 15 12 11 6 5 6 8 7 7 5 6 7 8 6 8 12 10 8 5 4 7 9 11 10 9 8 8 7 9 9 8 8 7 7 6 5 5 5 5 4 4 5 6 6 5 8 7 6 6 5 5 6 6 6 7 7 7 6 6 5 6 6 5 5 5 7 7 7 7
7 5 4 6 2 5 12 14 9 3 5 5 4 9 8 7 3 8 10 10 11 19 22 21 17 15 13 13 16 15 14 12 15 13 12 8 7 5 6 7 6 5 6 11 14 15 12 7 7 8 7 6 8 9 8 9 10 10 9 7 7 7 6 4 4 5 5 4 3 4 5 8 8 9 6 5 5 5 5 5 6 6 5 6 6 6 5 4 5 7 5 4 4 7 7 9 11
5 2 5 7 2 2 9 10 7 3 3 8 3 6 6 6 7 13 15 12 12 16 21 22 18 17 17 13 17 15 13 13 17 12 9 9 6 4 6 8 9 8 9 10 10 12 12 10 9 6 7 8 10 10 10 11 12 10 9 9 9 7 6 5 3 4 3 4 3 4 3 6 9 8 6 6 6 6 6 6 7 6 5 5 5 6 6 5 4 5 6 5 7 5 6 8 11
4 3 4 4 5 6 6 12 9 2 4 7 8 14 11 5 6 7 10 13 15 14 12 15 13 16 16 14 17 14 14 15 10 5 6 7 7 8 7 9 12 11 8 12 15 13 13 10 8 6 7 8 9 10 11 11 10 9 10 8 9 6 4 4 4 2 2 3 1 3 4 4 6 7 5 4 5 6 6 5 5 5 4 4 5 5 6 6 7 5 6 8 7 9 8 8 8
4 4 2 7 5 12 9 10 12 3 8 5 7 4 10 8 13 14 13 10 11 13 13 15 14 16 17 14 18 16 15 17 9 6 6 6 6 6 8 8 8 6 6 4 7 11 14 16 12 12 9 10 13 12 10 12 10 8 7 6 7 3 5 3 5 3 5 3 3 5 5 5 5 6 6 5 6 6 5 4 3 3 3 3 4 4 5 6 6 5 6 5 7 10 6 4 3
2 2 2 9 4 10 10 5 5 7 6 2 3 7 5 6 5 8 8 13 16 18 15 14 15 15 15 16 17 19 17 5 4 6 6 7 8 5 6 8 8 10 8 10 11 12 11 12 13 13 10 9 11 10 12 9 5 10 11 8 7 5 5 5 4 5 4 5 5 4 5 5 5 5 6 5 5 5 6 6 5 4 4 3 3 2 3 5 6 6 7 10 12 9 8 4 5
2 5 5 2 12 11 15 6 6 5 7 3 2 8 2 3 4 5 15 22 16 11 14 17 19 16 17 18 17 17 12 12 8 9 6 10 9 7 7 5 6 8 10 11 9 11 12 13 11 11 12 11 9 9 9 11 6 6 8 8 8 8 5 4 7 5 4 7 7 6 5 5 6 4 6 7 7 6 6 7 5 5 4 4 3 4 4 6 7 7 7 9 8 6 6 8 6
8 3 2 8 7 4 10 10 7 11 9 4 5 13 2 7 1 3 4 3 3 5 6 7 12 18 20 19 16 17 17 15 15 15 12 11 10 10 9 7 5 5 8 7 8 10 11 12 12 12 12 10 10 9 11 11 12 11 12 11 9 9 8 6 9 8 7 8 9 6 7 6 5 5 5 6 6 6 7 7 5 4 3 2 2 5 4 4 5 6 8 7 8 7 6 9 9
4 5 5 4 4 5 9 6 8 4 4 7 9 13 4 10 3 8 6 4 3 4 7 8 10 7 4 5 10 12 15 13 16 14 11 12 13 11 11 10 8 8 9 10 10 13 13 13 15 15 15 14 11 12 14 14 16 13 12 12 11 11 9 9 8 8 6 5 5 8 7 6 5 6 4 5 8 8 8 9 8 6 4 3 3 4 3 4 5 4 5 5 5 5 6 9 6
6 8 13 11 4 2 4 6 4 12 7 12 6 10 5 10 8 9 10 5 3 3 9 9 7 8 8 11 12 10 10 10 15 16 12 6 7 6 8 10 12 10 11 9 9 11 11 12 12 11 12 13 14 12 14 15 16 17 13 13 11 9 8 7 6 7 4 5 5 2 5 6 5 5 6 5 6 7 7 7 7 7 4 4 5 5 5 5 5 4 3 4 5 5 8 9 11
4 12 11 8 5 5 2 4 6 4 8 4 4 12 6 12 6 4 5 5 5 3 7 7 8 10 10 9 10 13 15 12 8 7 7 10 9 8 7 10 12 13 12 9 9 8 8 12 13 14 15 14 13 12 12 17 15 14 15 13 13 14 13 4 2 2 4 4 5 6 4 6 6 5 6 4 5 5 7 7 7 6 5 5 7 7 6 6 6 5 4 5 5 8 9 7 12
10 5 9 7 8 4 3 8 6 5 4 5 10 11 15 4 6 4 8 2 3 5 6 7 8 9 9 8 10 11 14 13 14 11 8 8 10 12 13 11 14 15 12 10 11 9 12 14 15 13 11 13 12 14 13 18 19 14 12 10 10 11 11 10 5 4 2 3 8 5 5 6 6 6 6 5 3 5 7 7 6 5 6 5 6 6 6 7 7 6 4 5 6 6 8 9 9
10 6 10 9 5 4 7 4 5 2 2 6 11 7 12 6 11 7 4 3 4 11 10 11 10 8 10 10 10 11 13 13 12 15 14 16 16 15 12 13 10 9 11 14 13 12 12 16 15 11 10 10 10 11 15 13 17 16 15 13 10 5 7 8 5 4 4 3 8 5 7 6 7 7 7 5 4 4 5 7 6 6 6 5 6 7 6 6 6 6 6 6 6 5 5 8 9
6 10 8 10 10 10 6 6 4 3 7 6 4 5 9 7 10 7 6 1 5 11 11 11 10 12 12 11 9 10 10 10 10 10 11 13 13 13 9 5 7 10 8 10 17 21 23 29 26 13 8 9 9 10 13 11 11 14 14 11 13 9 8 6 7 6 4 4 7 4 5 8 7 7 7 5 5 5 5 6 7 7 6 6 7 7 7 7 6 6 5 5 5 8 7 7 7
10 8 12 10 14 8 6 12 6 10 2 9 4 4 5 8 7 9 6 3 4 10 12 9 8 9 10 10 12 13 13 11 10 10 9 9 7 8 7 12 10 8 18 24 24 26 29 26 15 10 9 11 10 10 12 12 9 10 14 12 12 13 9 10 9 5 6 5 7 4 5 5 6 6 6 5 5 4 6 5 7 6 6 7 8 7 7 7 6 6 6 7 8 8 8 9 9
6 5 7 10 7 13 10 10 11 10 8 9 4 2 3 9 8 7 10 10 9 10 15 13 10 17 16 12 11 12 12 11 10 11 10 10 9 7 7 9 9 15 23 26 26 27 23 17 18 12 8 8 6 8 10 10 11 9 10 12 13 13 14 12 12 10 7 7 6 5 2 6 6 6 6 6 6 5 6 6 5 6 7 7 8 7 7 8 7 7 7 8 8 8 8 11 9
11 11 13 13 6 10 7 12 7 6 10 2 4 3 3 7 9 8 6 9 11 8 14 18 9 11 10 10 10 11 11 10 13 12 12 12 13 12 10 8 11 17 19 19 20 22 27 23 16 10 6 5 8 11 12 12 12 12 13 11 10 11 11 10 10 9 6 9 7 5 5 6 5 6 5 3 4 5 4 7 5 7 5 5 6 7 6 7 8 8 8 8 8 8 7 9 12
9 10 10 11 7 6 8 7 6 9 10 6 3 3 7 10 10 3 7 8 8 10 10 10 12 13 7 7 9 10 9 10 10 11 11 12 13 11 10 10 13 17 15 16 15 17 15 13 14 15 9 8 4 6 13 14 13 13 11 11 12 12 11 10 9 10 7 7 8 7 6 8 7 5 2 2 4 5 6 5 4 5 5 5 5 6 6 5 7 9 8 9 8 7 8 11 12
14 6 16 15 17 18 10 12 12 14 13 6 5 6 13 6 6 6 6 7 7 6 5 4 5 10 13 13 17 18 16 15 16 20 19 16 7 7 8 10 11 14 15 16 15 14 14 15 17 16 15 13 15 11 6 13 12 10 11 11 12 10 12 10 8 8 9 8 6 7 5 4 8 4 4 2 5 6 5 4 4 6 5 4 4 5 5 6 6 8 8 9 8 7 9 11 9
3 7 10 13 12 15 6 12 8 7 8 6 5 11 4 6 4 8 4 7 8 8 6 12 13 14 17 19 18 16 16 17 21 21 19 18 11 13 12 11 10 12 14 15 15 16 15 17 21 19 17 16 16 13 11 9 7 12 12 12 12 11 10 9 8 6 7 8 7 8 7 5 4 5 2 3 5 5 5 5 5 5 4 4 4 5 4 6 5 9 7 7 7 3 10 10 8
9 7 10 9 5 20 15 5 4 6 10 10 5 8 6 13 4 4 10 7 7 7 7 8 14 16 18 17 14 13 14 14 16 19 17 15 14 8 17 12 10 13 12 14 15 14 12 15 19 10 9 6 6 9 12 11 11 12 13 13 11 9 10 11 11 9 9 8 7 6 6 4 3 4 5 4 5 4 4 4 4 4 3 3 4 5 5 5 5 6 7 7 7 5 9 8 7
17 8 12 5 5 12 16 10 6 8 10 12 4 4 6 9 13 9 6 5 4 6 5 5 5 9 16 12 12 15 16 16 13 15 15 12 11 8 15 18 16 17 16 12 11 9 13 17 22 22 14 7 8 12 15 11 9 6 5 7 8 11 13 11 10 9 8 9 7 5 5 6 3 4 5 5 4 4 3 5 4 3 2 3 4 4 4 5 5 7 6 7 6 6 9 7 7
9 10 9 11 8 7 6 17 6 7 8 7 3 2 7 9 7 5 3 4 2 1 3 6 7 9 8 6 7 6 8 13 14 7 8 13 10 11 7 14 16 14 17 16 13 12 14 14 16 22 25 23 12 9 7 8 12 12 10 10 8 7 8 11 11 10 9 11 10 7 6 6 6 4 5 4 5 3 2 3 4 4 4 4 5 6 5 5 4 6 5 7 6 6 9 8 5
5 6 8 3 11 6 11 15 11 17 7 5 7 5 12 14 10 5 7 7 7 4 2 2 3 5 7 8 8 7 8 8 9 9 9 8 7 3 3 8 14 15 13 6 6 7 11 15 19 18 21 19 6 7 8 8 4 7 9 8 7 8 9 10 12 12 9 12 10 7 5 6 6 6 5 4 4 4 2 1 3 4 4 4 4 4 5 5 5 6 4 7 5 6 7 6 5
4 10 5 5 8 5 12 6 5 10 18 12 11 7 12 10 9 5 7 9 10 7 6 4 4 7 9 9 10 10 10 10 9 8 7 6 5 4 4 4 6 7 7 8 7 8 11 13 15 19 20 15 14 10 10 11 11 9 8 12 14 11 8 7 8 11 8 10 10 7 5 3 6 6 6 5 5 4 4 3 3 2 2 2 1 1 2 3 3 4 5 4 3 4 7 3 5
11 11 6 12 12 10 9 8 3 6 13 14 14 14 13 14 4 8 7 8 8 5 3 4 3 7 11 11 9 11 13 8 8 7 6 5 4 4 4 6 6 9 7 7 5 6 7 10 11 12 9 9 10 10 9 9 8 9 12 14 10 8 7 5 8 9 7 4 7 11 8 5 7 7 7 7 6 4 3 3 1 2 2 2 2 2 3 3 3 3 2 3 3 4 5 4 4
Wind_Speed
3 2 1 2 2 2 1 3 2 2 1 4 3 1 2 0 1 4 4 5 2 1 0 3 3 3 2 3 8 8 4 5 2 8 5 1 3 5 9 11 11 11 13 11 10 10 11 14 16 16 15 16 16 16 15 16 17 17 16 15 16 17 17 16 16 17 17 16 17 17 17 16 16 16 15 15 14 15 15 16 16 16 15 15 15 15 15 14 14 13 13 13 13 14 14 14 15
2 1 1 2 0 1 1 1 3 1 5 2 7 2 3 1 1 1 6 4 2 1 4 5 7 9 12 14 11 5 7 6 2 2 3 7 8 6 6 10 11 13 12 10 10 10 10 12 16 16 15 15 16 16 16 14 16 17 17 16 16 16 16 16 16 16 16 16 16 16 16 16 16 16 15 15 14 12 12 14 16 15 15 15 14 14 14 14 13 13 13 14 14 14 14 14 15
1 1 1 1 3 2 2 3 1 1 3 1 8 6 1 0 1 2 6 4 1 4 2 2 0 4 2 2 5 3 1 4 8 5 5 8 11 6 7 7 8 10 10 8 8 9 9 13 17 17 16 15 15 16 16 15 14 16 17 16 15 16 16 16 17 16 16 15 15 16 16 16 16 15 15 15 14 11 10 12 14 15 15 14 14 12 11 13 14 14 13 13 14 14 15 15 14
1 0 4 3 0 3 2 3 5 7 3 7 4 6 4 2 2 1 4 1 3 1 2 5 6 4 1 8 3 5 7 4 3 6 6 8 3 8 7 9 10 9 9 8 8 9 8 15 19 19 17 16 15 16 17 17 14 13 15 16 15 15 15 15 16 16 16 15 15 15 15 15 16 15 15 14 13 13 12 9 11 14 14 14 13 12 12 12 13 14 13 12 14 14 15 15 14
1 0 2 2 4 0 2 1 4 3 4 5 3 3 2 3 3 1 4 5 4 2 3 2 3 4 3 5 2 2 2 5 6 2 4 4 6 9 8 8 9 9 9 7 7 7 8 17 17 17 19 18 17 16 16 17 15 14 12 13 15 15 14 15 15 15 15 15 14 14 15 15 15 15 15 14 12 12 12 9 8 9 11 12 13 12 13 12 12 13 13 12 13 14 14 14 13
2 1 2 2 1 2 5 1 0 4 5 4 1 3 3 4 2 1 4 5 4 1 2 3 2 2 5 4 3 2 2 4 3 4 2 6 10 10 8 7 9 9 7 6 6 6 8 14 15 14 14 16 16 16 17 17 16 15 14 12 12 14 14 14 14 14 14 14 14 13 13 13 14 13 14 13 13 12 10 8 8 10 13 13 13 11 11 10 10 11 12 12 12 14 13 12 11
2 3 3 3 2 4 5 3 5 6 6 4 3 5 6 4 4 3 2 4 1 2 1 2 6 5 4 2 2 3 5 4 1 3 3 10 10 8 7 8 10 10 8 6 6 7 10 14 15 15 15 15 15 15 17 16 17 16 15 14 12 11 13 13 13 13 13 13 13 13 13 13 13 13 13 13 12 11 9 7 9 10 12 12 13 11 10 10 10 10 11 12 12 12 10 10 9
0 2 1 2 1 1 1 2 5 4 3 4 3 5 9 8 4 0 1 1 3 2 2 5 4 5 1 6 2 3 7 3 7 10 12 10 10 8 7 8 10 10 8 7 7 7 14 14 14 14 14 15 16 15 15 16 15 15 15 14 13 12 12 12 12 11 11 12 13 13 12 12 12 13 12 12 11 10 9 10 10 12 12 12 12 11 10 9 9 10 11 11 11 11 10 10 9
3 4 0 4 1 2 1 4 4 2 6 4 8 7 11 9 6 2 1 4 0 1 5 3 5 5 2 5 2 1 4 4 8 12 10 10 9 8 6 7 10 10 10 9 8 8 8 14 13 13 14 14 14 14 14 14 14 14 14 14 13 11 11 11 12 10 10 10 12 13 13 12 12 12 12 11 11 10 10 11 11 12 12 12 11 11 11 9 8 9 10 11 11 11 11 10 9
2 1 2 2 4 2 2 6 1 3 4 4 4 10 10 7 5 3 3 3 5 4 2 3 4 7 7 6 3 2 3 8 10 11 9 9 8 7 7 7 9 11 10 9 8 8 7 14 13 13 13 13 13 12 12 12 13 13 13 13 11 11 10 10 10 11 11 11 10 11 11 12 12 12 12 12 11 11 11 10 10 10 11 11 11 11 10 9 8 9 10 10 10 11 10 10 9
1 4 2 3 2 1 4 5 2 5 3 4 7 10 11 6 5 4 5 4 5 7 4 7 6 10 6 2 1 2 7 8 12 11 9 8 7 8 7 7 8 9 10 11 9 9 10 9 15 14 15 14 12 11 11 10 11 11 12 12 12 11 10 10 11 12 11 11 11 11 12 12 11 11 10 11 11 10 10 10 10 10 9 10 11 10 9 8 8 9 10 10 9 9 9 9 8
1 0 1 3 3 7 5 2 3 6 7 2 3 5 1 3 2 1 3 7 4 5 5 3 7 10 9 5 3 5 7 7 7 9 9 8 7 7 8 7 8 8 8 8 6 7 8 9 8 13 14 15 13 12 11 11 10 11 12 13 12 11 11 11 11 12 12 12 11 11 11 11 11 11 10 10 11 11 10 10 10 9 9 9 9 8 8 8 8 10 10 10 9 7 7 7 7
3 1 5 3 2 1 1 0 2 3 4 3 2 6 4 3 2 2 3 8 6 8 2 3 15 3 4 5 2 6 8 7 6 8 8 7 7 6 6 7 7 7 7 5 7 8 8 9 9 8 11 16 12 12 11 11 10 11 12 12 12 11 11 12 12 11 11 12 11 11 11 11 11 11 11 11 11 10 10 10 9 9 9 9 8 8 8 7 8 10 10 9 8 8 7 6 6
4 6 5 3 1 2 2 0 0 2 4 3 2 6 5 3 3 2 7 10 3 2 1 10 8 5 5 4 2 5 7 9 9 8 7 8 6 6 7 6 6 6 6 6 7 8 7 8 9 9 10 8 7 10 10 11 11 11 12 12 11 10 11 11 10 10 10 10 10 10 11 11 12 11 11 10 10 9 9 9 9 9 8 8 8 7 7 7 8 9 9 8 8 8 8 7 6
0 2 3 2 1 1 1 1 1 2 3 1 3 6 8 2 1 5 4 6 5 1 6 3 3 1 5 9 4 8 9 12 9 7 8 8 8 6 6 6 5 5 6 8 7 8 7 7 9 8 8 8 8 6 5 8 12 12 12 11 11 10 10 10 9 9 10 11 11 11 10 11 11 11 11 10 9 8 9 9 8 8 8 7 7 7 6 6 8 8 8 8 7 8 8 7 7
3 4 3 1 2 2 2 1 1 2 5 1 3 5 6 5 5 3 3 2 3 2 2 3 1 0 1 10 3 11 13 11 9 9 9 9 8 6 6 5 5 6 6 6 6 5 6 6 6 8 8 8 7 6 5 5 10 13 12 12 12 11 10 10 10 10 10 10 10 9 8 7 8 8 11 8 9 7 7 5 8 9 8 8 7 7 6 6 6 7 7 7 6 7 8 7 7
2 4 1 2 4 3 2 2 4 2 5 3 4 7 5 4 4 3 3 4 11 1 3 2 2 3 7 2 8 16 12 11 10 11 10 8 7 6 5 4 5 6 6 6 5 5 6 7 8 6 7 8 7 6 5 5 8 12 10 12 12 11 10 11 11 11 9 9 9 8 7 5 4 4 5 4 8 4 5 6 7 8 8 8 7 7 6 5 5 6 7 6 6 6 7 7 7
1 1 4 2 3 3 4 4 6 1 1 4 6 3 4 4 3 1 3 7 3 3 5 3 6 7 4 4 13 16 14 14 14 15 11 9 8 8 8 6 6 8 8 7 5 5 6 7 9 8 6 7 6 5 4 5 6 8 6 6 7 8 9 8 6 5 7 5 9 6 5 4 4 4 4 6 3 3 4 4 6 7 7 7 7 6 6 5 4 4 5 5 6 5 6 4 4
2 1 2 7 4 2 5 3 6 0 4 3 4 3 0 3 4 2 4 1 2 4 5 5 7 8 10 10 13 15 15 14 13 15 16 14 10 12 10 8 7 8 8 8 6 5 5 6 7 8 7 7 7 5 4 5 7 6 5 6 6 8 7 7 4 6 5 6 5 5 4 4 4 4 3 5 4 6 4 5 5 6 7 8 7 7 7 5 4 3 3 4 4 5 4 4 4
2 4 4 4 6 2 3 3 5 4 1 7 8 4 5 6 1 1 4 3 1 3 4 2 4 8 11 12 13 15 16 14 13 13 14 12 9 10 10 11 10 10 8 8 8 5 6 7 7 7 7 7 6 5 5 5 5 5 5 5 5 5 5 5 5 5 5 5 5 4 4 4 4 3 4 9 7 4 3 3 4 6 6 7 7 5 6 5 4 3 2 4 3 3 4 4 4
1 1 3 1 3 2 4 7 9 9 0 3 4 4 7 6 1 2 8 6 2 4 6 8 10 13 13 13 14 15 15 12 13 10 9 8 5 4 5 8 10 8 7 7 6 7 6 7 7 6 7 6 6 5 5 5 5 5 4 5 5 5 5 5 4 5 5 5 4 4 4 3 3 2 2 2 3 3 2 2 2 1 2 3 4 3 2 1 2 2 3 3 2 3 4 4 4
3 5 3 3 2 1 6 6 7 3 0 0 3 4 5 3 1 4 6 3 4 7 7 9 11 15 15 16 13 13 14 11 10 8 7 7 1 1 1 1 1 2 4 6 7 7 6 7 7 5 6 7 5 4 5 6 7 5 5 5 5 5 5 5 4 4 4 4 4 4 4 4 3 2 2 3 2 2 3 3 3 3 3 2 2 3 3 2 2 1 2 2 2 3 3 3 3
2 3 3 4 4 2 2 1 4 3 2 3 2 1 3 2 2 1 3 2 3 3 5 6 11 17 15 13 13 12 14 11 10 10 10 8 5 8 8 7 2 2 4 3 6 6 7 7 7 7 6 5 5 5 5 4 5 4 4 5 5 5 5 5 5 4 4 4 3 4 4 4 3 2 2 2 2 2 3 2 3 2 3 3 4 2 2 2 3 2 1 2 2 3 3 3 3
2 4 1 4 3 5 5 4 3 2 4 6 2 3 3 3 6 0 0 3 6 9 3 7 11 11 11 11 9 11 12 11 9 8 8 8 10 9 3 3 6 5 1 2 2 4 6 6 5 7 7 7 5 7 5 5 6 5 4 7 5 6 6 5 4 4 5 4 4 3 3 3 3 3 3 3 2 2 2 2 1 2 4 4 2 2 2 2 2 2 1 2 2 2 3 3 2
3 3 2 4 1 5 5 5 5 4 8 7 3 5 10 6 4 1 2 3 4 3 7 10 12 12 10 10 12 11 10 9 9 9 7 6 8 6 6 3 2 2 3 4 5 5 4 6 8 9 8 10 6 6 7 4 6 6 4 5 6 6 4 4 5 4 5 4 4 4 4 3 3 3 3 3 1 2 1 0 2 3 4 3 1 1 1 0 1 1 1 1 1 2 2 3 3
5 7 1 2 4 5 5 5 7 6 4 3 1 7 10 5 3 1 3 1 2 6 10 11 13 13 11 11 10 10 9 9 9 9 8 7 8 10 8 6 5 4 5 2 3 4 6 7 9 9 8 8 6 5 5 5 6 7 5 5 6 5 4 4 4 4 4 4 4 4 3 3 3 4 3 2 3 2 2 3 4 4 4 1 1 1 3 2 3 2 2 2 2 2 3 3 3
4 4 4 4 7 4 4 3 4 1 4 4 4 4 5 3 6 3 1 3 5 9 10 8 12 12 10 10 8 6 8 8 8 8 8 6 7 9 8 6 10 4 8 2 4 3 3 6 7 6 6 6 5 5 5 5 6 7 4 5 5 5 5 4 3 4 3 3 3 5 4 3 3 3 3 3 3 3 3 4 5 4 3 2 1 2 3 3 2 2 2 2 2 2 3 3 3
3 3 1 5 4 4 6 2 10 0 4 7 7 6 1 1 1 4 4 3 6 11 9 10 10 10 10 10 8 7 7 8 8 9 13 11 9 8 7 10 9 4 10 10 5 5 6 7 6 5 5 5 6 5 5 5 5 5 5 4 4 5 5 4 4 3 4 3 3 4 4 3 3 3 3 3 4 4 4 4 4 4 4 4 3 3 2 3 3 2 2 2 0 2 4 4 4
1 2 3 5 6 4 2 4 2 5 3 7 6 0 1 1 4 2 2 6 5 10 11 11 10 9 9 9 8 8 9 11 12 10 9 6 4 5 10 10 13 11 5 7 7 5 5 5 6 5 4 4 5 5 4 4 4 5 5 4 4 5 4 4 4 3 3 4 4 3 3 3 3 3 2 3 4 4 5 5 4 3 4 4 5 6 5 2 2 2 1 4 6 4 4 4 3
1 2 1 4 6 4 3 1 0 4 2 7 6 3 5 7 7 5 7 10 8 11 11 10 8 7 8 10 9 8 7 7 3 2 4 2 3 6 9 11 13 13 9 5 3 4 2 4 4 4 5 5 5 3 4 4 5 5 5 4 5 4 4 4 3 2 3 3 3 2 3 4 3 2 4 2 3 3 4 4 5 4 2 3 4 5 5 3 2 1 1 4 3 3 3 2 2
2 1 3 0 2 2 3 1 1 3 3 8 2 5 7 7 7 4 6 11 14 13 13 11 9 8 8 9 9 8 8 4 4 3 6 5 5 1 2 1 2 9 5 5 6 5 2 4 5 4 5 4 4 3 4 4 4 5 5 4 4 4 4 3 3 3 2 3 3 3 3 4 5 3 4 3 2 2 3 3 3 3 3 3 3 2 2 1 2 2 2 3 3 1 0 1 3
2 1 2 3 2 5 10 5 5 4 2 2 4 4 7 7 7 5 8 7 9 14 13 12 10 9 9 9 9 7 8 3 4 3 4 5 4 2 2 2 4 3 5 4 5 4 3 1 5 5 5 5 4 4 3 4 4 5 5 5 4 4 3 3 3 3 2 2 2 3 3 3 5 4 3 3 4 3 3 3 2 3 4 3 4 3 3 3 3 3 2 3 3 1 3 2 3
5 2 3 0 0 4 6 1 2 6 0 0 6 4 1 3 8 5 7 9 7 12 13 11 10 10 9 9 7 6 6 3 2 3 3 3 3 3 3 5 4 2 4 5 6 5 2 1 4 5 6 6 5 5 5 4 5 5 5 5 4 4 4 3 3 2 2 2 2 3 3 2 3 3 3 4 4 3 3 3 2 3 4 4 4 4 4 3 4 3 2 2 2 4 4 4 4
2 2 1 2 0 1 2 8 3 2 3 1 1 2 4 4 2 5 7 7 7 12 13 12 9 7 7 8 8 9 8 6 7 6 6 4 3 3 3 5 4 4 4 6 7 9 7 4 4 4 4 4 4 5 5 5 6 6 5 4 4 4 3 3 3 2 2 2 2 3 3 4 4 3 3 3 3 3 3 3 2 3 3 2 3 3 3 2 2 4 2 1 1 3 4 5 5
1 0 2 2 1 1 4 1 3 2 2 4 1 4 5 4 1 7 9 8 8 10 11 12 11 9 7 8 9 10 8 8 9 5 5 5 4 3 3 5 6 5 5 6 7 7 7 6 5 4 4 4 5 6 6 7 7 6 5 5 5 4 4 3 2 3 2 2 1 1 2 3 4 4 4 4 4 3 3 2 3 3 2 2 2 3 2 3 2 3 4 2 3 2 3 4 6
2 2 1 2 2 2 2 6 2 1 2 5 5 7 7 3 2 4 7 9 10 9 8 9 8 9 8 7 8 8 8 10 3 3 4 4 3 3 3 5 5 6 5 7 9 8 7 6 5 4 4 5 5 5 6 6 6 5 6 5 5 3 2 3 3 2 1 2 1 2 1 2 4 4 3 3 3 2 2 2 2 1 2 1 2 2 2 3 4 4 4 4 4 4 4 3 4
3 2 1 3 3 6 5 5 7 1 3 3 4 3 5 5 7 9 8 6 7 9 10 9 9 9 9 8 11 9 9 10 3 4 4 5 3 2 3 3 4 4 4 3 3 5 7 8 8 7 6 6 6 6 5 6 5 4 4 4 4 2 3 2 3 2 3 2 2 3 3 2 3 3 3 2 2 3 2 1 1 1 1 1 1 1 2 3 4 3 3 3 4 4 2 1 1
0 0 1 5 2 5 5 2 3 2 3 0 1 4 4 4 3 4 4 7 10 12 10 10 10 9 9 10 12 12 9 1 1 3 4 5 5 4 3 3 4 6 4 5 6 6 6 7 8 7 6 6 6 5 6 5 3 5 6 5 4 3 3 3 3 4 3 3 3 3 2 3 3 3 3 2 2 2 2 1 1 1 2 1 1 0 2 3 3 3 4 4 4 4 4 1 1
1 2 2 1 5 5 10 4 4 3 2 1 2 5 1 2 2 3 7 11 4 4 7 9 10 11 9 10 11 10 6 6 4 3 4 6 6 5 4 3 2 3 4 6 5 5 6 7 7 6 7 7 5 6 5 6 3 3 4 4 5 4 3 2 4 3 2 4 4 4 3 3 3 3 4 3 3 2 3 3 2 1 1 1 1 1 2 3 4 4 5 5 4 2 3 3 2
4 2 1 4 3 1 3 3 2 6 2 2 4 7 1 4 0 1 2 1 0 3 4 5 7 9 11 12 10 10 9 7 9 8 7 6 7 6 5 5 4 3 4 4 5 7 6 7 7 7 7 6 6 5 6 5 7 7 7 7 5 5 4 3 5 5 4 5 5 4 4 4 3 3 3 4 3 3 4 4 3 2 1 1 1 2 2 2 3 3 4 3 5 4 2 3 2
1 4 3 2 2 3 5 2 4 3 2 4 4 7 2 5 1 2 2 1 1 3 5 6 6 5 2 2 5 8 10 7 8 7 7 7 7 7 7 6 5 5 5 6 6 8 7 8 9 9 9 9 7 7 8 8 9 8 7 7 6 7 5 6 5 5 4 2 2 5 4 4 3 4 3 3 4 4 4 4 4 2 1 1 1 1 1 2 2 2 2 2 3 3 2 2 2
2 5 8 7 3 1 3 3 2 3 1 5 1 3 2 4 4 5 6 2 1 0 6 4 5 6 5 7 8 6 6 7 9 8 3 4 4 4 4 7 7 6 7 6 5 7 7 7 8 7 7 8 8 8 8 8 8 9 7 7 6 5 5 4 4 4 2 2 1 1 3 4 3 3 4 3 3 4 4 4 4 4 2 2 2 2 2 2 2 2 1 2 3 3 4 4 3
2 5 7 6 3 3 1 2 2 1 3 2 1 5 1 6 3 1 2 2 3 1 2 4 5 6 6 6 6 8 9 8 5 4 5 7 6 5 5 6 7 8 7 5 5 5 5 7 8 9 9 7 8 8 7 8 8 8 9 8 7 7 7 2 1 1 3 2 2 4 3 4 4 3 4 3 3 3 5 4 4 3 3 3 3 3 2 2 2 2 1 3 2 4 5 3 6
2 2 6 5 5 3 2 5 3 1 1 2 5 4 6 0 1 3 3 1 1 4 4 4 5 6 7 5 6 7 8 8 8 7 5 5 7 8 9 6 7 7 6 5 6 4 6 8 8 7 5 6 6 8 7 9 10 8 8 6 5 6 5 5 3 3 2 2 4 3 3 4 4 4 4 3 2 3 4 5 4 3 4 3 3 3 3 3 3 2 1 2 3 3 5 5 5
3 4 6 6 3 2 4 1 2 0 1 2 5 5 5 1 4 3 2 1 3 7 6 6 6 5 6 7 7 7 8 8 7 8 8 8 9 9 7 8 5 5 5 6 4 2 6 8 8 6 5 4 6 7 7 6 9 9 8 7 6 2 3 4 3 3 3 2 5 3 4 4 5 4 4 3 2 2 2 3 3 4 4 3 3 4 4 3 3 4 3 3 4 3 3 4 5
2 7 5 6 6 6 3 3 2 1 3 2 1 2 2 1 5 4 3 0 3 6 7 6 6 7 6 7 6 7 7 6 5 6 6 7 6 6 4 3 4 5 2 6 12 13 14 14 8 4 5 6 6 4 4 5 7 8 8 7 8 5 5 4 4 4 3 2 4 3 3 5 4 5 4 3 3 3 3 3 4 4 4 4 4 5 5 5 4 4 3 3 3 5 4 4 3
6 5 7 6 8 4 3 6 2 4 0 3 2 2 2 1 1 2 3 0 2 6 7 5 4 6 6 6 8 8 8 7 6 6 6 6 4 4 4 6 4 6 12 15 14 14 9 9 10 7 2 2 3 4 4 6 6 7 8 8 9 9 6 7 6 3 4 3 4 3 4 3 4 5 4 3 3 3 3 3 4 4 4 4 5 5 5 5 4 4 4 5 6 6 5 6 6
3 2 3 5 3 7 5 5 6 3 2 4 3 1 2 3 1 4 5 7 5 6 9 9 5 7 9 8 7 8 8 7 6 6 6 6 5 5 4 4 5 11 15 12 11 12 10 6 9 3 1 3 3 2 4 6 7 6 7 8 9 9 9 7 8 7 5 5 4 3 1 4 4 4 4 3 4 3 3 4 3 4 4 4 5 4 5 5 4 5 5 5 5 5 5 6 6
6 7 7 6 1 3 1 5 1 1 3 0 2 2 1 2 2 2 4 6 7 5 7 10 6 7 5 5 6 7 7 7 7 6 6 6 7 7 6 4 8 12 11 11 10 13 15 13 9 7 4 3 4 7 8 8 8 8 8 7 7 7 7 7 6 6 4 6 5 3 3 4 3 4 3 2 2 3 2 3 3 4 3 3 4 4 4 5 5 5 5 5 5 5 5 6 7
6 5 5 5 2 2 2 2 0 3 5 3 2 2 1 3 4 1 1 4 5 6 6 7 8 8 3 2 3 4 3 2 2 2 2 5 6 6 5 6 9 10 10 8 8 8 9 8 10 9 6 4 2 2 5 9 8 8 7 7 7 7 6 6 5 6 4 4 5 4 4 5 5 3 2 2 3 3 3 3 2 3 2 2 2 3 4 3 4 6 5 6 5 4 5 7 7
6 3 8 7 7 5 2 3 3 7 6 2 3 2 3 3 2 4 4 4 4 3 3 2 2 4 8 8 10 10 10 9 10 11 11 10 5 5 5 5 7 8 9 8 7 8 8 8 7 8 6 9 10 7 1 1 5 6 7 7 7 6 7 6 5 5 6 5 4 4 2 3 5 3 3 1 3 4 3 2 3 4 3 3 2 3 3 3 4 5 5 5 5 4 5 6 6
0 2 5 6 5 7 2 4 3 2 2 2 0 2 1 1 2 5 2 5 3 4 4 4 8 7 9 10 10 9 8 7 8 11 9 7 6 5 7 7 4 6 8 7 7 8 8 9 13 12 7 4 4 6 7 6 5 6 7 7 7 6 5 5 5 4 4 4 5 4 4 3 3 3 1 2 3 3 3 3 3 4 3 3 3 3 3 3 3 5 4 4 5 1 6 6 5
2 3 4 3 2 11 6 2 2 3 5 2 0 3 2 6 2 2 6 4 4 5 4 3 8 10 10 10 8 8 7 6 6 7 10 6 4 1 9 8 5 1 4 7 6 5 6 9 8 5 7 4 3 6 8 7 5 4 5 6 7 6 6 7 7 5 5 3 4 3 4 3 2 2 3 2 3 3 3 3 3 2 2 2 3 3 3 3 3 3 4 4 5 3 5 6 4
7 2 6 2 3 6 7 3 2 3 4 3 2 1 2 3 2 4 2 3 1 3 2 2 2 3 8 5 6 9 10 11 9 3 5 7 2 3 3 11 11 12 11 8 5 6 8 11 14 7 2 4 5 4 5 6 6 4 3 5 5 5 6 6 6 6 5 6 5 3 3 4 2 2 3 3 3 2 2 3 3 2 2 2 2 3 3 3 4 4 4 5 3 3 6 4 4
3 3 4 3 1 1 2 6 0 1 1 1 1 1 3 4 2 1 2 2 1 0 2 3 4 5 5 4 4 3 5 4 7 5 3 1 4 2 2 6 8 8 9 8 8 8 9 9 10 11 11 7 6 5 2 1 5 6 5 5 5 5 4 5 6 7 6 5 5 5 4 4 4 3 3 3 3 2 2 2 3 3 3 3 4 4 3 3 3 4 4 4 4 4 5 5 3
3 3 3 1 3 2 4 4 4 7 3 2 3 2 3 5 3 3 3 4 5 3 1 1 3 4 4 4 3 4 4 5 6 5 5 2 2 1 1 2 7 9 8 3 4 4 7 9 10 10 13 9 3 4 5 6 2 3 4 5 5 5 6 6 7 8 5 5 6 5 3 4 4 4 3 3 2 2 1 1 2 2 3 3 2 3 3 3 4 4 3 4 3 4 5 4 3
2 3 1 1 3 2 4 2 2 3 6 4 4 1 4 2 4 2 4 5 7 4 2 1 1 3 4 5 6 5 5 6 6 5 4 3 3 2 2 3 4 4 3 4 4 6 7 8 10 12 13 10 7 4 5 3 5 5 7 8 9 7 5 5 5 8 5 3 2 5 3 2 3 4 4 3 3 3 3 2 2 1 1 1 1 1 1 1 2 3 3 3 2 3 5 3 3
5 5 2 6 7 4 4 3 1 2 4 4 5 4 5 6 2 5 5 5 4 4 1 1 1 2 3 4 5 6 7 5 5 4 4 3 3 2 2 2 3 5 4 4 3 4 5 6 7 8 6 6 5 4 4 5 4 5 4 3 3 3 4 3 4 6 5 1 4 4 5 4 3 3 4 5 3 2 2 2 1 1 1 1 1 2 2 2 2 2 2 2 2 3 4 3 3
Wind_Direction
254 335 316 185 85 126 70 1 151 305 85 254 312 222 254 281 255 332 284 325 326 292 189 8 29 321 206 191 132 102 42 139 194 141 214 183 85 79 120 126 128 126 127 133 131 129 134 132 130 131 132 127 125 127 130 129 127 127 124 123 123 124 125 125 125 125 124 125 126 127 128 129 129 129 129 127 125 126 124 122 120 117 114 114 114 117 116 115 116 120 121 120 121 120 119 117 117
281 8 33 219 126 58 200 124 96 351 39 11 250 127 252 289 321 227 291 288 237 20 55 87 75 70 72 102 128 125 39 44 146 87 107 101 90 93 119 131 137 132 133 136 136 133 133 134 132 130 126 126 128 130 132 129 127 126 125 123 124 126 127 126 126 127 127 129 130 131 131 130 129 127 124 123 124 122 121 120 119 117 116 117 117 119 121 119 120 119 116 120 120 121 122 117 117
326 124 93 44 28 84 100 33 248 49 135 220 266 213 319 291 191 289 295 282 75 105 91 9 29 52 41 39 48 22 200 98 105 109 105 124 118 145 137 129 121 121 121 121 125 129 137 139 135 132 130 132 132 132 131 130 127 125 124 124 124 126 127 128 129 129 130 132 133 132 132 131 129 125 120 120 119 115 112 115 120 121 120 120 122 122 120 125 124 120 119 122 120 120 119 116 116
94 54 167 79 169 19 78 32 84 131 152 216 314 264 212 167 152 309 338 317 170 187 21 33 34 305 114 65 84 62 87 123 108 133 135 158 171 136 124 118 119 116 116 127 134 143 147 144 139 137 134 135 135 133 132 130 128 123 122 124 125 126 126 126 126 129 131 132 132 131 131 130 128 125 123 123 122 121 120 118 117 122 127 122 110 109 112 114 113 116 118 121 123 126 122 119 120
186 304 111 106 113 359 106 167 144 100 219 195 196 272 240 205 189 310 329 295 269 220 44 83 61 340 82 91 1 75 154 94 115 71 101 85 106 131 122 117 120 121 125 132 134 139 145 140 137 138 138 138 136 132 130 131 129 125 121 121 124 125 126 127 129 130 131 132 131 130 129 128 127 127 126 126 125 126 129 129 120 106 104 114 114 112 116 121 113 111 117 124 126 123 120 122 121
61 43 353 105 277 185 63 74 102 204 226 134 248 252 207 205 174 199 279 289 261 54 126 82 153 323 22 11 10 51 51 148 103 74 105 133 129 130 124 122 119 119 115 108 114 120 131 129 128 127 129 131 133 132 132 131 129 128 125 123 123 126 128 130 131 132 131 132 131 130 129 127 127 126 126 127 128 128 118 100 99 95 114 121 113 115 111 103 101 107 117 122 120 117 116 112 112
230 53 355 33 28 54 169 152 211 212 266 171 248 280 289 256 193 178 291 324 298 100 33 98 109 102 73 330 16 54 3 254 249 104 96 131 121 126 129 124 120 116 112 106 109 119 128 129 130 132 134 132 130 129 130 130 130 128 127 127 125 125 127 131 131 132 132 132 131 130 129 128 127 127 129 129 127 122 106 101 99 96 111 120 118 119 112 105 101 106 116 117 114 113 109 108 99
26 135 269 106 211 56 119 202 240 144 271 180 237 266 280 277 282 58 183 59 288 157 54 130 94 98 196 267 146 47 26 28 103 94 116 125 127 131 131 129 122 122 119 117 121 130 134 132 133 133 132 132 130 130 128 129 128 128 128 128 128 128 129 129 130 131 133 131 130 130 129 130 130 130 128 126 122 114 109 100 102 107 117 121 120 121 116 108 105 104 109 113 111 112 111 102 101
338 85 314 79 103 44 57 219 244 226 281 285 269 244 267 274 286 255 166 220 335 133 150 132 135 91 135 96 53 30 50 79 105 109 113 125 134 135 130 133 126 130 129 128 131 129 130 135 133 131 130 128 129 131 131 129 128 129 129 128 127 127 129 130 130 128 130 130 131 131 131 130 129 126 124 120 115 112 109 105 106 118 122 123 123 119 117 115 111 105 108 112 116 112 109 103 99
36 113 235 151 124 200 6 288 142 233 215 240 267 289 285 286 286 184 178 175 205 128 63 78 118 116 137 109 103 13 102 121 113 111 129 132 133 124 123 126 126 129 133 137 136 131 136 136 128 128 125 127 131 131 130 131 132 131 131 129 123 124 125 126 124 126 124 125 126 128 128 126 123 121 121 119 114 111 111 111 113 119 124 122 119 118 119 118 115 106 105 105 110 112 109 107 108
215 13 134 81 47 146 213 264 269 308 271 290 282 251 254 271 253 262 177 186 191 144 142 115 71 121 117 95 47 64 129 137 128 138 137 134 129 127 124 126 130 134 141 143 144 141 135 131 135 138 135 130 131 130 128 133 135 132 127 123 120 122 126 125 125 126 127 130 130 126 122 121 121 120 117 116 114 116 115 114 117 118 120 123 119 115 117 118 113 104 97 93 89 91 104 111 110
40 359 12 104 184 168 235 190 283 280 285 318 279 291 292 272 270 291 151 134 142 127 151 153 151 132 108 135 160 145 136 144 137 135 137 131 123 125 126 124 124 130 141 142 134 125 130 131 130 136 130 130 133 133 139 141 142 133 126 122 121 128 131 132 133 134 133 132 128 124 121 123 122 118 115 116 118 120 121 121 118 118 122 120 118 121 120 119 111 99 95 90 84 88 101 112 116
127 113 86 101 225 134 203 84 269 303 334 297 253 304 334 324 9 215 156 117 136 128 131 215 144 138 122 170 136 137 152 146 139 138 134 131 125 120 115 116 122 135 145 135 130 134 134 131 134 138 133 132 135 138 146 146 144 136 126 122 125 133 138 138 138 136 132 129 126 125 124 122 120 119 118 122 124 127 126 124 126 126 126 126 126 125 122 120 110 104 95 87 82 81 84 95 110
116 180 131 208 72 128 139 204 33 24 308 250 281 288 339 2 340 97 126 106 121 112 301 144 134 122 82 102 157 168 167 152 146 142 128 122 114 111 112 119 117 124 131 130 131 133 139 142 136 135 129 126 136 142 151 150 144 132 123 122 129 136 139 136 134 129 125 122 118 119 120 120 120 121 123 125 127 126 126 127 128 132 132 129 128 125 125 120 112 104 100 98 92 86 80 75 73
82 148 85 119 106 73 252 113 204 152 256 263 272 356 343 347 358 65 78 95 30 135 100 51 128 126 192 170 197 195 163 157 145 133 117 110 104 97 98 106 116 120 125 136 135 138 140 135 128 125 127 130 136 143 154 151 139 128 122 123 129 133 131 129 124 121 125 124 123 121 122 120 119 121 123 124 121 122 133 133 134 134 136 135 131 129 126 118 110 108 103 100 101 93 86 76 65
146 82 86 131 250 151 259 163 198 100 262 178 280 347 2 342 28 54 311 171 140 57 87 155 153 189 210 173 212 146 147 145 138 121 123 116 101 97 100 110 121 128 131 130 129 124 123 124 121 124 128 131 139 145 144 140 137 123 122 128 134 134 130 130 127 127 129 125 122 120 117 116 119 125 125 123 121 118 118 127 136 140 141 140 135 131 125 121 117 114 107 102 98 98 91 80 71
70 82 72 36 250 141 245 162 144 224 256 281 303 29 27 340 333 70 18 64 124 94 65 22 312 306 173 203 135 127 140 131 133 131 123 124 124 119 115 121 132 133 137 128 120 118 119 122 114 112 125 131 135 138 132 127 131 125 123 132 134 132 130 133 133 126 122 120 117 93 78 74 73 88 105 113 125 109 123 127 144 144 145 145 142 137 132 130 131 119 116 112 101 97 91 81 69
59 109 110 251 197 118 207 181 188 157 247 300 342 351 26 357 14 129 48 34 47 65 49 350 26 34 69 101 122 132 139 144 151 149 147 140 147 141 144 153 151 150 143 135 123 128 130 130 126 126 126 132 134 134 130 115 117 113 112 125 135 134 137 130 124 124 115 92 97 95 89 93 93 94 113 124 115 123 126 138 146 153 152 153 153 146 146 148 142 129 118 114 106 93 87 75 53
107 110 109 226 161 235 160 208 228 224 264 254 289 320 338 269 138 211 78 289 5 28 20 48 70 67 82 108 128 136 146 153 155 161 158 156 160 156 157 157 162 150 149 143 136 141 132 121 125 132 137 140 139 135 118 113 105 107 113 118 128 138 141 118 97 106 87 106 113 109 105 103 112 115 119 135 129 139 140 145 162 160 162 165 162 159 157 162 154 132 122 113 99 84 68 71 66
226 118 234 248 207 226 245 256 273 209 302 313 318 316 0 280 177 200 145 181 56 172 150 64 121 139 137 136 141 144 154 154 158 160 161 157 159 162 164 163 163 159 156 155 151 143 138 130 132 139 144 151 146 133 116 104 112 115 119 114 115 102 95 101 106 109 109 117 118 116 119 120 110 111 155 159 152 127 140 143 166 173 171 172 173 164 165 166 161 147 113 85 68 61 62 46 57
274 110 204 226 196 151 256 224 244 271 182 283 274 310 332 320 189 98 149 103 243 274 236 170 176 162 152 152 149 152 156 148 154 154 154 148 158 191 185 168 163 158 158 144 146 148 143 136 139 144 150 151 141 136 131 121 115 112 106 109 105 103 103 104 113 113 119 122 120 126 124 117 94 93 68 85 95 127 103 112 135 129 147 175 155 122 108 90 77 56 36 46 60 49 43 33 48
106 214 196 200 150 216 241 212 241 253 150 181 290 339 276 308 43 109 145 134 226 213 216 214 168 159 153 158 159 149 148 139 131 124 56 31 180 214 334 22 58 111 135 143 151 145 141 143 139 135 146 152 141 139 132 137 129 125 117 123 113 108 113 114 114 122 126 123 130 128 120 104 97 77 73 118 127 135 137 150 148 142 141 139 88 94 66 65 84 58 44 20 16 54 50 40 39
230 308 253 227 212 239 257 177 221 184 284 247 306 235 307 27 305 191 200 189 249 230 270 182 170 169 162 146 139 135 139 129 119 100 111 129 61 360 350 342 337 177 156 143 150 149 139 142 153 152 154 146 150 144 124 128 130 133 127 126 121 123 123 126 127 132 137 139 139 138 130 135 132 99 115 121 148 136 156 170 175 132 110 67 31 63 68 50 49 47 35 15 13 28 29 33 43
153 246 343 300 167 218 250 271 187 228 244 260 219 4 310 303 315 195 268 277 276 294 229 138 140 149 141 127 107 123 133 139 127 119 128 125 124 130 123 30 332 336 295 99 85 106 113 134 168 168 157 159 153 160 150 144 142 142 137 150 130 141 136 140 143 144 143 149 147 144 137 140 144 154 161 161 158 124 152 204 62 79 65 66 342 8 53 33 47 40 50 26 356 13 9 359 360
187 271 246 267 163 234 254 254 276 233 239 260 316 295 262 234 225 108 242 263 300 60 101 117 128 128 121 121 130 140 130 113 105 107 110 91 91 72 44 60 98 231 357 26 46 91 155 162 177 174 171 168 164 162 163 148 143 153 155 136 150 156 137 146 148 143 149 156 159 160 154 150 149 165 175 161 121 115 111 84 60 45 58 46 296 8 64 294 265 271 296 322 32 2 359 334 332
204 222 199 284 288 275 264 303 268 249 258 192 175 248 262 271 140 226 248 271 94 107 103 119 119 120 126 136 145 146 130 125 113 115 123 132 122 101 71 38 21 176 98 92 199 188 163 165 177 178 176 171 168 164 155 148 159 165 161 146 161 150 143 143 147 144 149 151 165 171 165 156 161 169 166 141 130 118 95 72 66 68 84 156 233 52 347 252 228 250 290 330 356 354 347 322 355
174 208 212 234 257 327 301 208 277 152 216 162 190 251 268 338 161 269 292 170 124 106 104 106 120 125 128 133 129 122 112 122 127 125 136 151 141 128 127 79 52 350 106 194 232 216 178 164 174 177 179 171 160 167 162 158 160 161 153 139 157 137 143 143 141 141 149 161 175 179 175 161 146 145 142 135 115 122 100 91 98 120 122 153 135 154 241 271 236 206 237 238 265 343 330 348 357
160 187 263 269 308 255 244 294 266 120 281 187 182 231 96 339 92 220 208 157 133 117 110 120 121 124 128 130 119 119 123 144 148 157 166 167 169 157 158 120 96 154 178 184 197 185 173 180 171 172 171 166 166 169 168 156 154 148 140 136 133 134 138 139 147 154 160 175 198 192 158 143 132 128 131 126 135 123 118 107 126 146 156 195 172 202 204 252 177 171 161 169 118 43 347 346 328
244 142 293 297 357 353 280 205 256 165 249 168 179 340 298 353 204 256 166 124 114 115 121 126 126 129 127 122 134 152 161 171 178 177 168 157 145 168 159 149 154 168 225 193 188 176 176 168 152 152 158 171 179 172 158 145 136 130 126 127 125 133 132 134 138 157 166 190 183 173 143 137 131 123 103 155 149 128 127 126 127 146 175 188 183 190 190 198 126 101 68 49 33 0 328 317 330
64 51 146 333 0 339 290 236 107 138 253 139 134 253 265 261 254 286 167 130 121 122 132 133 125 126 128 146 154 164 178 181 120 84 118 129 183 191 164 188 159 163 181 196 153 145 121 130 139 153 164 174 180 151 139 139 134 118 117 119 119 117 122 125 132 128 172 187 174 154 137 144 110 122 195 142 84 123 131 130 123 128 155 185 171 166 176 148 125 96 62 90 167 197 210 236 333
211 262 64 152 21 282 284 78 21 155 213 156 132 225 276 273 276 246 174 153 144 144 147 142 136 136 146 158 166 176 196 164 127 143 146 157 204 237 224 200 123 152 148 141 143 147 143 134 153 154 171 165 159 154 149 136 126 119 115 111 110 114 117 119 132 132 149 188 167 152 113 113 119 162 206 135 117 137 133 103 134 139 150 163 161 181 116 68 103 121 147 157 205 103 37 67 101
27 78 296 324 129 273 301 270 183 193 323 84 138 245 230 258 256 194 170 158 143 145 155 151 141 146 151 162 171 175 198 142 115 145 165 173 189 168 105 163 143 143 133 140 120 125 171 162 159 159 164 168 155 153 139 125 112 107 105 105 96 110 116 112 125 131 154 172 171 129 133 136 121 173 127 112 147 158 142 147 155 148 155 163 170 151 129 144 142 131 181 173 138 108 147 84 108
355 87 252 275 32 266 345 349 205 230 52 57 172 198 334 288 241 194 166 155 153 149 157 148 145 144 151 165 165 183 197 203 159 181 187 185 189 160 154 164 165 141 123 138 142 143 179 187 169 166 175 166 153 139 125 105 91 88 81 80 94 103 112 120 130 139 136 165 135 135 140 117 93 197 134 144 149 146 142 144 168 171 158 158 159 142 140 157 160 129 61 60 154 152 142 123 90
321 14 154 212 192 305 310 302 308 199 151 249 181 143 226 251 306 163 150 153 148 159 160 155 149 147 146 155 166 189 203 198 203 190 195 191 174 163 159 146 148 165 159 170 174 163 176 174 166 175 161 145 143 131 114 102 89 85 82 87 91 82 78 87 85 92 125 131 129 131 141 147 174 201 145 150 151 167 157 159 174 189 172 143 131 123 150 166 149 144 130 64 102 117 132 127 94
217 355 10 326 317 250 247 337 272 39 3 210 159 198 257 291 219 175 168 154 155 164 166 164 152 150 147 160 177 195 199 208 214 181 179 188 165 173 155 151 165 171 170 187 189 169 155 163 150 172 146 140 125 112 105 94 90 81 75 77 72 65 58 55 64 83 101 122 148 142 135 119 137 151 148 152 160 166 160 175 198 222 205 160 135 136 154 165 142 137 148 95 66 68 97 97 136
154 166 194 183 273 292 235 242 275 169 242 215 182 194 220 264 178 194 162 166 166 159 153 163 151 149 153 166 189 194 209 220 194 140 152 166 171 164 175 173 178 166 193 202 178 165 161 151 142 133 137 132 120 107 103 93 84 90 97 84 70 58 63 80 40 74 70 64 56 99 68 81 123 141 140 129 130 128 146 180 215 228 227 179 173 163 174 185 181 157 148 130 97 70 64 78 108
91 99 126 227 208 283 276 285 258 146 103 215 200 195 201 225 188 187 176 146 154 154 160 167 162 151 160 184 193 201 211 217 171 141 132 137 149 173 201 186 176 153 168 162 176 162 162 158 146 160 152 149 138 131 120 124 113 95 79 84 113 120 114 82 56 28 59 59 64 75 96 93 106 129 118 102 125 143 127 77 316 282 277 229 172 173 173 170 171 158 103 57 86 55 21 61 88
158 79 198 283 178 252 243 256 334 290 177 339 130 125 235 257 236 199 152 162 183 171 165 172 166 153 165 186 197 203 211 276 269 136 125 127 145 172 193 204 171 155 172 163 176 181 166 150 158 153 148 152 146 140 140 128 141 158 145 154 135 100 87 83 69 37 58 51 48 63 96 124 130 132 128 130 114 114 135 143 198 243 238 251 248 200 132 143 138 134 129 80 50 154 187 160 300
65 193 207 312 272 246 284 285 314 307 98 311 103 129 295 308 219 217 185 191 193 168 172 176 165 160 170 188 196 205 200 216 231 191 156 153 148 166 180 191 228 175 167 183 180 159 156 155 157 159 157 148 145 138 147 138 128 125 116 145 131 100 76 79 90 51 60 66 42 37 66 89 113 128 143 142 133 137 142 138 131 113 231 230 222 104 112 139 151 145 133 147 142 55 76 45 9
143 114 83 229 231 34 314 287 334 359 66 165 135 103 329 332 311 304 287 211 138 142 124 145 181 181 188 191 188 198 206 206 219 205 184 171 162 164 172 172 185 170 166 168 171 168 165 166 158 160 151 137 140 147 136 123 114 104 93 105 83 94 98 64 65 43 39 46 38 28 39 48 82 100 135 132 125 138 139 128 130 122 60 354 131 122 86 86 98 116 110 173 113 145 136 69 320
286 175 160 265 272 240 158 273 333 303 40 83 74 48 13 7 73 256 273 310 98 124 130 146 173 189 192 177 191 195 203 204 221 215 183 177 178 180 174 173 160 171 183 185 174 172 175 175 166 162 152 147 150 146 138 131 112 89 92 80 84 80 58 54 56 35 20 41 47 33 12 27 40 77 76 117 133 134 132 139 144 149 123 350 40 76 81 74 60 68 134 141 109 122 87 92 292
316 229 192 199 209 212 259 337 28 23 340 22 91 48 353 299 283 221 275 341 212 342 162 181 162 165 173 193 198 188 203 207 215 219 181 169 176 169 177 171 172 181 189 193 178 178 173 168 155 149 137 140 143 145 147 137 128 126 116 111 102 93 105 106 125 139 113 75 81 331 27 29 26 60 73 86 118 135 131 138 138 139 135 125 132 130 125 109 113 126 149 126 154 128 127 156 163
87 272 193 199 169 130 94 332 66 5 112 332 31 126 276 325 327 293 326 304 260 330 202 185 171 181 183 191 190 191 192 208 227 219 174 169 176 174 193 188 183 184 193 178 174 180 174 164 155 153 144 141 140 145 153 130 125 134 139 142 145 151 146 206 194 168 140 116 62 54 36 28 30 54 65 63 91 117 126 131 138 137 126 124 130 129 135 140 145 149 167 144 147 137 149 148 143
222 239 148 132 129 167 164 103 99 189 241 297 43 97 127 118 289 313 317 329 300 286 275 239 211 188 186 184 191 193 194 198 202 207 201 178 180 185 192 197 193 190 178 175 178 181 172 167 153 135 120 135 147 149 159 146 136 134 124 123 135 142 148 152 143 116 92 115 82 49 54 43 38 50 62 62 65 113 122 119 119 122 114 108 109 105 124 129 123 107 84 85 121 152 149 138 135
218 191 149 156 162 164 122 87 111 285 126 256 332 351 75 265 269 330 14 94 299 260 241 234 225 211 195 186 185 192 198 196 194 197 201 195 191 192 186 192 191 172 181 181 171 70 38 32 34 60 93 141 157 157 154 146 133 135 128 124 106 89 103 108 99 68 77 65 86 41 59 46 48 44 48 51 51 76 85 114 111 95 87 75 79 86 72 76 109 130 125 111 131 96 111 132 135
262 131 88 77 69 67 86 88 91 349 76 260 268 355 137 282 289 335 339 112 284 268 273 252 226 222 207 187 179 185 191 192 197 200 203 208 203 197 189 154 164 182 104 46 45 55 57 52 29 319 163 169 156 134 122 121 120 119 118 124 128 127 115 94 95 94 70 69 88 56 63 60 42 51 36 36 51 49 70 75 79 82 84 81 76 86 86 76 59 62 50 84 82 82 40 87 114
129 101 63 24 38 25 25 65 88 63 26 266 245 322 133 159 272 179 48 295 247 293 293 282 245 212 214 189 176 176 182 187 188 187 196 203 196 178 162 185 170 81 68 79 81 82 104 137 187 213 267 68 82 115 136 124 108 119 130 142 143 142 144 138 127 109 106 89 97 63 64 60 53 48 34 31 41 44 72 69 81 85 75 81 85 80 79 88 69 73 68 65 63 75 74 76 70
128 72 112 59 0 8 28 347 37 92 276 258 286 228 153 153 285 288 247 285 272 241 264 271 270 235 205 180 181 173 169 174 176 174 180 172 163 170 162 170 114 93 99 107 116 118 118 187 212 185 96 89 75 100 122 123 125 129 143 149 150 154 153 153 151 156 153 135 130 117 47 73 47 39 37 32 33 23 59 59 64 75 85 92 90 98 97 97 95 87 71 75 75 73 82 85 80
77 77 59 111 252 43 255 7 173 188 181 263 331 329 37 221 206 179 266 273 293 258 242 267 256 268 260 199 169 161 158 160 168 174 168 170 175 171 169 145 107 113 126 132 155 158 165 182 175 174 174 121 143 163 153 150 145 152 153 151 151 152 150 150 152 146 158 139 138 125 115 110 73 70 34 42 18 3 359 79 81 87 86 87 109 101 104 109 108 99 99 87 85 87 95 97 87
110 145 136 93 94 48 182 288 269 314 281 275 351 297 232 255 300 231 270 279 270 289 277 251 246 243 236 111 86 79 68 77 105 140 165 169 169 172 159 126 122 131 141 157 169 167 166 162 176 166 92 81 98 213 184 158 159 153 154 152 155 154 154 151 153 146 156 141 143 152 162 148 129 134 88 44 356 353 356 353 47 49 48 65 89 104 113 115 112 109 109 104 103 116 109 99 105
202 123 145 177 145 155 199 192 181 205 193 286 294 69 229 128 238 327 292 294 304 322 318 16 63 99 96 91 87 78 73 72 70 51 18 355 11 46 58 103 124 134 154 166 167 161 156 152 90 52 137 170 171 171 130 158 154 153 156 159 155 157 154 150 145 142 150 144 146 144 166 142 132 157 132 98 46 38 13 9 51 54 31 29 34 54 56 74 93 102 102 110 106 126 108 106 107
83 162 83 99 208 148 140 205 148 167 133 38 166 208 168 153 295 294 310 330 4 22 7 62 70 73 86 80 82 85 85 89 95 96 72 4 347 63 72 57 50 131 168 178 174 153 159 131 139 173 182 167 136 149 164 173 184 161 158 156 157 143 138 126 125 137 150 146 149 155 169 170 148 129 128 83 65 72 40 18 42 51 36 29 36 43 41 59 68 93 84 86 90 69 99 91 98
233 103 181 208 135 103 98 62 40 106 62 192 301 325 322 301 4 339 349 4 9 36 20 44 106 112 100 101 99 96 93 81 73 88 112 115 306 285 117 112 102 214 208 200 174 136 133 130 142 147 167 160 177 176 176 175 154 151 158 149 141 149 154 156 157 165 146 130 140 151 146 169 139 108 103 99 94 73 75 74 58 53 47 41 55 46 46 38 33 54 84 91 92 64 86 88 86
97 157 231 163 123 116 123 148 339 59 146 236 21 231 302 49 214 330 351 17 339 30 353 328 9 53 103 108 119 135 139 136 125 99 114 111 138 288 184 145 159 178 195 200 154 136 149 153 177 88 42 197 208 192 175 151 145 144 134 153 164 151 159 158 155 150 145 154 151 152 138 134 151 134 122 117 107 102 74 77 77 55 35 45 50 47 62 64 65 53 43 45 32 62 84 65 70
150 197 162 113 234 169 339 98 109 117 206 266 10 283 254 170 238 343 215 210 253 281 341 19 29 49 56 44 36 32 44 46 94 124 77 286 159 247 192 167 165 190 205 189 157 147 154 161 153 158 191 222 191 166 95 84 160 156 154 158 149 152 171 184 167 145 149 189 163 172 169 153 143 136 122 116 115 102 85 73 74 57 47 33 27 25 21 38 60 79 57 60 27 52 74 64 25
26 76 65 336 102 150 124 197 163 119 197 81 271 58 213 213 214 191 236 237 241 265 334 38 64 83 95 90 60 64 73 70 72 76 90 135 76 146 48 156 171 189 196 171 129 108 144 156 154 159 196 215 169 134 135 159 117 89 143 150 167 170 170 201 169 141 151 221 173 153 159 155 159 141 146 139 130 129 110 94 71 85 77 70 59 35 37 25 34 50 50 67 36 65 77 79 61
60 46 340 20 35 212 102 39 77 156 159 173 162 292 283 272 224 184 242 229 226 203 237 277 123 121 120 115 119 112 101 99 91 93 92 82 101 83 101 147 156 153 153 143 139 136 144 154 160 176 192 204 204 142 148 147 104 137 159 174 176 169 177 178 164 134 142 219 219 141 160 160 135 161 162 162 164 162 148 139 116 102 104 96 90 85 64 82 67 75 57 68 46 69 102 80 96
146 150 166 164 117 119 132 213 42 76 106 195 129 228 271 267 248 257 274 256 217 185 131 303 353 50 76 110 127 129 113 96 99 93 83 74 52 57 85 85 110 131 135 131 115 122 141 158 158 171 193 204 199 146 137 153 164 178 160 177 159 154 153 159 177 129 106 87 285 213 148 141 187 195 176 182 173 147 121 116 116 130 151 152 157 167 150 124 127 119 97 92 106 104 107 100 80